Weather in Zrenjanin

Serbia     45°22′00″N   20°23′50″E
temp.,
°C
wind,
m/s
gust,
m/s
humid.,
%
clouds,
%
prec.,
mm/h
press.,
hPa
HPBL,
m
8 may, sat
sat823:00+9wnw41195100 5.1 1016574
02:00+10wnw71391100 6.4 1019667
05:00+8wnw51187100 0.0 1020458
08:00+9nw58702 0.0 1022548
11:00+13nw45485 0.0 10231461
14:00+16nw44415 0.0 10221932
17:00+16nw343894 0.0 10221913
20:00+11n11531 0.0 102310
9 may, sun
sun923:00+9e115784 0.0 102410
02:00+8se226199 0.0 102416
05:00+7se336699 0.0 102431
08:00+11se575941 0.0 1025322
11:00+17se67425 0.0 1024986
14:00+20se77375 0.0 10231293
17:00+20se68455 0.0 10211215
20:00+15se615543 0.0 1021449
10 may, mon
mon1023:00+14se817500 0.0 1020497
02:00+14se918510 0.0 1020521
05:00+13se918540 0.0 1020496
08:00+15sse916590 0.0 1020600
11:00+19sse1012500 0.0 1020863
14:00+22se910465 0.0 10191082
17:00+22se811519 0.0 1017944
20:00+18se817513 0.0 1018558
11 may, tue
tue1123:00+16se8174618 0.0 1018515
02:00+15se918510 0.0 1017496
05:00+14se818550 0.0 1017497
08:00+15se916570 0.0 1017519
11:00+20sse911470 0.0 1016755
14:00+23se911430 0.0 1014927
17:00+22se811485 0.0 1012773
20:00+18se817485 0.0 1011477
12 may, wed
wed1223:00+17se918430 0.0 1010524
02:00+16se919470 0.0 1008532
05:00+15se818550 0.0 1007520
08:00+17se917595 0.0 1005638
11:00+20sse101353100 0.0 1005860
14:00+17wnw91185100 2.9 1006693
17:00+16e228191 4.8 1006312
20:00+15s3380100 5.9 100651